Regional Weather Roundup
Issued by NWS

Home | Current Version | Previous Version | Text Only | Print | Product List | Glossary Off
Versions: 1 2 3 4 5 6 7 8 9 10 11 12 13 14 15 16 17 18 19 20 21 22 23 24 25 26 27 28 29 30 31 32 33 34 35 36 37 38 39 40 41 42 43 44 45 46 47 48 49 50

000
ASUS45 KTFX 061019
RWRMT
MONTANA HOURLY WEATHER ROUNDUP
NATIONAL WEATHER SERVICE GREAT FALLS MT
319 AM MST FRI MAR 6 2015

NOTE: "FAIR" INDICATES FEW OR NO CLOUDS BELOW 12000 FEET WITH NO
SIGNIFICANT WEATHER AND/OR OBSTRUCTIONS TO VISIBILITY.

* THESE STATIONS ARE NOT UNDER NWS QUALITY CONTROL. THEY DO NOT
   REPORT WEATHER SUCH AS PRECIPITATION OR FOG.

MTZ001>007-043-061100-
WEST OF THE DIVIDE
CITY           SKY/WX    TMP DP  RH WIND       PRES   REMARKS
KALISPELL      PTCLDY    21  18  88 CALM      30.31R
MISSOULA       MOCLDY    28  19  69 CALM      30.35R
BUTTE          MOCLDY    25  16  69 N6        30.28S WCI  18
MULLAN PASS    PTCLDY    28  16  61 SW6       30.29S WCI  21
* ANACONDA     MOCLDY    32  14  47 SE3        N/A
* ESSEX        N/A       19  15  84 N/A        N/A
* EUREKA APT   PTCLDY    23  16  74 CALM      30.31R
* HAMILTON APT PTCLDY    36  18  48 S12       30.33S WCI  28
* LIBBY APT    PTCLDY    23  19  85 CALM      30.33S
* LINCOLN      N/A       32  13  45 S5         N/A   WCI  27
* LOOKOUT PASS N/A       29  18  63 NE1        N/A
* POLSON       N/A       34  16  48 S1         N/A
* RONAN APT    PTCLDY    32  21  64 N/A        N/A
* SEELEY LAKE  N/A       16  11  81 N/A        N/A
* THOMP F APT  MOCLDY    25  11  55 NE4        N/A
$$

MTZ008-052>055-061100-
SOUTHWEST MONTANA
CITY           SKY/WX    TMP DP  RH WIND       PRES   REMARKS
BOZEMAN        CLOUDY    25  19  78 CALM      30.27S
DILLON         PTCLDY    32  12  43 S13       30.28S WCI  22
* W YELLOWSTON CLEAR      8   4  84 N1         N/A
* THREE FORKS  PTCLDY    28  16  61 N/A        N/A
* BOULDER HILL N/A       34   8  33 S4         N/A
* MONIDA PASS  N/A       19  10  68 SE11       N/A   WCI   7
* RAYNOLDS PAS N/A       15   1  54 S8         N/A   WCI   4
* WHITEHALL    N/A       30  10  43 N8         N/A   WCI  22
* WISE RIVER   N/A       36  11  35 SW11G17    N/A   WCI  28
$$

MTZ009>010-012-014-046-048-049-054-061100-
EAST SLOPES AND CENTRAL MONTANA
CITY           SKY/WX    TMP DP  RH WIND       PRES   REMARKS
CUT BANK       PTCLDY    36  18  48 W18       30.08S WCI  26
GREAT FALLS    CLEAR     34  18  52 SW13      30.13R WCI  25
HELENA         CLOUDY    43  12  28 W8        30.25R
* CONRAD       PTCLDY    41  19  41 SW15G23    N/A
* DEARBORN     N/A       44  16  32 NE3        N/A
* EAST GLACIER N/A       35  15  44 W29G44     N/A   WCI  22
* MONARCH      N/A       34  10  37 SW22       N/A   WCI  22
* PENDROY      N/A       37  18  46 W14        N/A   WCI  28
* ROGERS PASS  N/A       33   9  36 E12G29     N/A   WCI  24
* SWEET GRASS  N/A       37  19  48 W19G26     N/A   WCI  27
* WHITE SULPH  N/A       36  11  35 E4G12      N/A
$$

MTZ011-013-016-021-035-040-045-047-050-051-061100-
NORTH CENTRAL MONTANA
CITY           SKY/WX    TMP DP  RH WIND       PRES   REMARKS
HAVRE          CLEAR     32  18  56 SW16      30.06S WCI  21
LEWISTOWN      CLEAR     32  18  56 CALM      30.11F
* N BAR RANCH  CLEAR     32  12  43 W6        30.11S WCI  26
* CHINOOK      CLEAR     28  18  66 CALM      30.05F
* FORT BENTON  CLEAR     36  18  48 SW7       30.12S WCI  30
* MALTA APT    CLEAR     21  16  81 N/A        N/A
* CHESTER      N/A       35  17  48 W11G18     N/A   WCI  27
* DENTON       N/A       33  17  52 SW12       N/A   WCI  24
* GEYSER       N/A       39  15  37 W18G26     N/A   WCI  30
* JUDITH GAP   N/A       35  15  44 W6G12      N/A   WCI  30
* LOMA         N/A       33  18  54 W6         N/A   WCI  27
$$

MTZ017>020-022>027-061-062-061100-
NORTHEAST MONTANA
CITY           SKY/WX    TMP DP  RH WIND       PRES   REMARKS
GLASGOW        CLEAR     27  18  69 CALM      30.05F
GLENDIVE       CLEAR     25  18  75 NW9       30.06F WCI  16
JORDAN         PTCLDY    25  21  85 CALM      30.07S
SIDNEY         PTCLDY    25  16  69 E5        30.09S WCI  19
WOLF POINT     MOCLDY    27  19  72 W3        30.07F
* BEAVER HILL  N/A       29  16  58 SW4        N/A
* CIRCLE       N/A       26  18  72 N/A        N/A
* LINDSAY DVD  N/A       30  16  56 W8         N/A   WCI  22
* NAVAJO       N/A       23  18  81 W8         N/A   WCI  14
* PLENTYWOOD A MOCLDY    21  16  81 N3        30.04S
* POPLAR APT   PTCLDY    27  19  72 CALM      30.07S
* SACO         N/A       26  19  75 S9         N/A   WCI  17
* SCOBEY APT   MOCLDY    19   7  59 N/A        N/A
$$

MTZ028>042-056>058-061100-
SOUTHCENTRAL AND SOUTHEAST MONTANA
CITY           SKY/WX    TMP DP  RH WIND       PRES   REMARKS
BAKER          CLEAR     27  14  58 CALM      30.06S
BILLINGS       PTCLDY    36  14  40 SW17      30.15F WCI  26
LIVINGSTON     PTCLDY    39  12  33 SW23G37   30.20R WCI  28
MILES CITY     PTCLDY    28  18  66 N/A       30.09S
* BIG TIMBER A PTCLDY    39  12  33 SW22G29   30.18F WCI  29
* FORSYTH APT  PTCLDY    34  18  52 SW7       30.10F WCI  28
* LAUREL APT   PTCLDY    30  12  47 N/A        N/A
* ROUNDUP APT  PTCLDY    34   9  35 S6         N/A   WCI  29
* HYSHAM       N/A       33  11  40 W6         N/A   WCI  27
* REED POINT   N/A       45  15  30 W9         N/A
$$

REGIONAL REPORTS...DAKOTAS
CITY           SKY/WX    TMP DP  RH WIND       PRES   REMARKS
WILLISTON      PTCLDY    18  14  84 CALM      30.06S
DICKINSON      MOCLDY    21  12  68 W6        30.02S WCI  13
BEACH          PTCLDY    27  16  63 W5        30.06S WCI  21
CROSBY         CLEAR     16  12  84 W9        30.05S WCI   5
TIOGA          CLEAR     10  10 100 W5        30.06S WCI   1
WATFORD CITY   CLEAR     16  14  92 S3        30.04S
BISMARCK       CLEAR     23  14  68 W5        30.06R WCI  16
GRAND FORKS    CLEAR     12   7  80 W7        29.97R WCI   1
FARGO          CLEAR     14   7  73 SW7       29.98S WCI   4
BUFFALO SD     CLEAR     27  14  58 W10       29.99F WCI  18
RAPID CITY     PTCLDY    30  16  56 W5        30.11S WCI  25
$$

REGIONAL REPORTS...WYOMING/IDAHO/WASHINGTON
CITY           SKY/WX    TMP DP  RH WIND       PRES   REMARKS
GILLETTE       MOCLDY    32  18  56 SW12      30.14S WCI  23
SHERIDAN       PTCLDY    23  16  74 SW5       30.14F WCI  16
CODY           PTCLDY    39  10  30 W15G22    30.17S WCI  31
YELLOWSTONE LA PTCLDY     1  -2  87 CALM      30.35S
SALMON         PTCLDY    21  14  74 CALM      30.38S
MULLAN PASS    PTCLDY    28  16  61 SW6       30.29S WCI  21
SAND POINT     PTCLDY    27  23  85 CALM      30.36R
SPOKANE        MOCLDY    36  23  59 SE8       30.34R WCI  30
$$

REGIONAL REPORTS...ALBERTA
CITY           SKY/WX    TMP DP  RH WIND       PRES   REMARKS
CALGARY        MOCLDY    43  19  38 W15       29.97S
LETHBRIDGE     CLEAR     41  19  41 W28G37    30.04S
MEDICINE HAT   CLEAR     32  25  75 S7        30.01R WCI  25
EDMONTON       MOCLDY    36  27  70 SW7       29.89S WCI  30
WATERTON GATE  N/A       41  19  41 SW18G28    N/A
CARDSTON       N/A       41  23  49 W18G29     N/A
MILK RIVER     N/A       36  23  59 W15        N/A   WCI  27
$$

REGIONAL REPORTS...SASKATCHEWAN
CITY           SKY/WX    TMP DP  RH WIND       PRES   REMARKS
SWIFT CURRENT  CLOUDY    27  21  78 SW12      29.97F WCI  16
MOOSE JAW      MOCLDY    14  12  92 S8        30.00R WCI   3
REGINA         MOCLDY     7   5  91 S7        30.00F WCI  -5
VAL MARIE      N/A       27  21  78 S6         N/A   WCI  20
ASSINIBOIA     N/A       19  18  96 SW7        N/A   WCI  10
CORONACH       N/A       19  18  96 E3         N/A

$$




USA.gov is the U.S. government's official web portal to all federal, state and local government web resources and services.